Home   Weather   Gurgaon   Past weeks

Flag for India Past Weather in Gurgaon, Haryana, India — Yesterday and Last 2 Weeks

Now
61 °F

Passing clouds.


Feels Like: 61 °F
Forecast: 52 / 75 °F
Wind: 3 mph from West

Location: New Delhi Palam Airport

Current Time: Jan 22, 2017 at 11:28:53 am

Latest Report: Jan 22, 2017 at 10:30 am


Visibility: 0 mi

Pressure: 30.24 "Hg

Humidity: 68%

Dew Point: 50 °F

Location of GurgaonLocation

Past Weather in Gurgaon — Graph

°F

Gurgaon Temperature Yesterday

Maximum temperature yesterday: 66 °F (at 2:00 pm)
Minimum temperature yesterday: 41 °F (at 7:00 am)
Average temperature yesterday: 54 °F

High & Low Weather Summary for the Past Weeks

 TemperatureHumidityPressure
High73 °F (Jan 15, 2:00 pm)100% (Jan 7, 9:30 am)30.27 "Hg (Jan 7, 9:30 am)
Low39 °F (Jan 11, 8:00 am)20% (Jan 15, 4:30 pm)29.83 "Hg (Jan 7, 2:00 pm)
Average54 °F73%30.06 "Hg
* Reported Jan 7 9:30 am — Jan 22 10:00 am, Gurgaon, Weather by CustomWeather, © 2017

Note: Actual official high and low records may vary slightly from our data, if they occured in-between our weather recording intervals... More about our weather records

Advertising

Gurgaon Weather History for the Previous 24 Hours

Scroll right to see more
 ConditionsComfort  
Time TempWeatherWind HumidityBarometerVisibility
10:00 am
Sun, Jan 22
59 °FClear.5 mph68%30.24 "Hg1 mi
9:30 am54 °FFog.5 mph77%30.24 "Hg1 mi
9:00 am52 °FFog.5 mph82%30.21 "Hg1 mi
8:30 am50 °FFog.No wind88%30.21 "Hg0 mi
8:00 am48 °FFog.5 mph87%30.21 "Hg0 mi
7:30 am48 °FFog.5 mph94%30.18 "HgN/A
7:00 am48 °FFog.5 mph94%30.18 "Hg0 mi
6:30 am48 °FFog.No wind94%30.18 "Hg1 mi
6:00 am50 °FFog.No wind88%30.15 "Hg1 mi
5:30 am50 °FFog.No wind88%30.15 "Hg1 mi
4:30 am52 °FFog.No wind88%30.15 "Hg1 mi
4:00 am52 °FFog.No wind88%30.15 "Hg1 mi
3:30 am52 °FFog.No wind88%30.15 "Hg1 mi
3:00 am52 °FFog.No wind88%30.15 "Hg1 mi
2:30 am52 °FFog.No wind88%30.15 "Hg1 mi
2:00 am52 °FFog.No wind88%30.15 "Hg1 mi
1:00 am54 °FFog.No wind82%30.15 "Hg1 mi
12:30 am54 °FFog.No wind82%30.15 "Hg1 mi
12:00 am54 °FFog.No wind82%30.18 "Hg1 mi
11:30 pm
Sat, Jan 21
55 °FFog.No wind82%30.18 "Hg1 mi
11:00 pm55 °FFog.3 mph82%30.18 "Hg1 mi
10:30 pm57 °FFog.6 mph77%30.18 "Hg1 mi
10:00 pm57 °FFog.7 mph77%30.15 "Hg1 mi
9:30 pm57 °FFog.7 mph77%30.15 "Hg1 mi
9:00 pm59 °FPassing clouds.No wind63%30.15 "Hg1 mi
8:30 pm59 °FPassing clouds.No wind63%30.12 "Hg1 mi
8:00 pm59 °FPassing clouds.No wind63%30.12 "Hg1 mi
7:30 pm61 °FPassing clouds.No wind63%30.12 "Hg1 mi
7:00 pm61 °FPassing clouds.No wind63%30.12 "Hg1 mi
6:30 pm61 °FPassing clouds.3 mph63%30.12 "Hg1 mi
6:00 pm61 °FScattered clouds.3 mph59%30.12 "Hg1 mi
5:30 pm63 °FScattered clouds.5 mph52%29.83 "Hg1 mi
5:00 pm64 °FScattered clouds.6 mph40%30.09 "Hg1 mi
4:30 pm64 °FScattered clouds.6 mph34%30.09 "Hg1 mi
4:00 pm66 °FScattered clouds.6 mph30%30.09 "Hg1 mi
3:30 pm66 °FScattered clouds.6 mph30%30.09 "Hg1 mi
3:00 pm66 °FScattered clouds.6 mph30%30.09 "Hg1 mi
2:30 pm64 °FScattered clouds.6 mph43%30.12 "Hg1 mi
2:00 pm66 °FScattered clouds.6 mph40%30.12 "Hg1 mi
1:30 pm64 °FScattered clouds.5 mph49%30.12 "Hg1 mi
1:00 pm64 °FScattered clouds.5 mph49%30.15 "Hg1 mi
12:30 pm64 °FScattered clouds.5 mph49%30.18 "Hg1 mi
12:00 pm63 °FScattered clouds.5 mph59%30.18 "Hg1 mi
11:00 am55 °FPassing clouds.6 mph67%30.18 "Hg1 mi
Weather by CustomWeather, © 2017

See weather overviewHow to use our weather pages